Weather History for McGuire AFB, NJ

Change the Weather History Date:

Wednesday, June 19, 2013

  Actual Average Record
Temperature  
Mean Temperature 68 °F -  
Max Temperature 77 °F 79 °F 91 °F (2001)
Min Temperature 58 °F 60 °F 50 °F (1999)
Cooling Degree Days 3    
Growing Degree Days 18 (Base 50)    
Moisture  
Dew Point 57 °F    
Average Humidity 76    
Maximum Humidity 100    
Minimum Humidity 38    
Precipitation  
Precipitation 0.00 in - - ()
Sea Level Pressure  
Sea Level Pressure 29.97 in    
Wind  
Wind Speed 8 mph (North)    
Max Wind Speed 13 mph    
Max Gust Speed 18 mph    
Visibility 10 miles    
Events Rain    
Averages and records for this station are not official NWS values.
T = Trace of Precipitation, MM = Missing Value Source: NWS Daily Summary

Daily Weather History Graph

Daily Weather History Graph

Search for Another Location

Airport:

Trip Planner

Search our weather history database for the weather conditions in past years. The results will help you decide how hot, cold, wet, or windy it might be!

Date:

Astronomy

Jun. 19, 2013 Rise Set
Actual Time 5:29 AM EDT 8:30 PM EDT
Civil Twilight 4:56 AM EDT 9:03 PM EDT
Nautical Twilight 4:14 AM EDT 9:44 PM EDT
Astronomical Twilight 3:25 AM EDT 10:33 PM EDT
Moon 4:20 PM EDT (6/19) 2:12 AM EDT (6/19)
Length of Visible Light 16h 06m
Length of Day
15h 01m
Waxing Gibbous, 80% of the Moon is Illuminated
Jun 19
Waxing Gibbous
Jun 23
Full
Jun 30
Last Quarter
Jul 8
New
Jul 15
First Quarter

Hourly Weather History & Observations

Time (EDT) Temp. Dew Point Humidity Pressure Visibility Wind Dir Wind Speed Gust Speed Precip Events Conditions
12:15 AM 60.8 °F 60.8 °F 100% 29.85 in 10.0 mi North 6.9 mph - N/A   Partly Cloudy
12:24 AM 62.6 °F 62.6 °F 100% 29.86 in 10.0 mi North 8.1 mph - N/A   Mostly Cloudy
12:27 AM 62.6 °F 62.6 °F 100% 29.86 in 10.0 mi North 8.1 mph - N/A   Mostly Cloudy
12:58 AM 63.3 °F 62.4 °F 97% 29.87 in 10.0 mi North 6.9 mph - N/A   Overcast
1:22 AM 64.4 °F 62.6 °F 94% 29.86 in 10.0 mi NNW 8.1 mph - N/A   Overcast
1:30 AM 64.4 °F 62.6 °F 94% 29.87 in 10.0 mi NNW 8.1 mph - N/A   Overcast
1:45 AM 64.4 °F 62.6 °F 94% 29.87 in 10.0 mi North 6.9 mph - N/A   Overcast
1:58 AM 63.9 °F 63.3 °F 98% 29.88 in 10.0 mi North 6.9 mph - N/A   Overcast
2:19 AM 64.4 °F 62.6 °F 94% 29.86 in 10.0 mi North 8.1 mph - N/A   Overcast
2:58 AM 63.9 °F 63.0 °F 97% 29.87 in 10.0 mi NNW 6.9 mph - N/A   Overcast
3:40 AM 62.6 °F 62.6 °F 100% 29.88 in 10.0 mi NNW 8.1 mph - N/A   Overcast
3:58 AM 63.3 °F 62.4 °F 97% 29.89 in 10.0 mi North 8.1 mph - N/A   Overcast
4:55 AM 62.6 °F 60.8 °F 94% 29.88 in 10.0 mi North 10.4 mph - N/A   Overcast
4:58 AM 62.8 °F 61.5 °F 96% 29.89 in 10.0 mi North 10.4 mph - N/A   Overcast
5:40 AM 62.6 °F 60.8 °F 94% 29.90 in 10.0 mi NNW 8.1 mph - N/A   Overcast
5:58 AM 62.4 °F 60.3 °F 93% 29.92 in 10.0 mi North 8.1 mph - N/A   Overcast
6:39 AM 62.6 °F 59.0 °F 88% 29.93 in 10.0 mi North 10.4 mph - N/A   Overcast
6:58 AM 62.4 °F 59.2 °F 89% 29.95 in 10.0 mi North 9.2 mph - N/A   Overcast
7:02 AM 62.6 °F 59.0 °F 88% 29.95 in 10.0 mi North 10.4 mph - N/A   Mostly Cloudy
7:09 AM 62.6 °F 59.0 °F 88% 29.95 in 10.0 mi NNE 8.1 mph - N/A   Scattered Clouds
7:58 AM 63.3 °F 57.0 °F 80% 29.98 in 10.0 mi North 11.5 mph - N/A   Clear
8:58 AM 65.5 °F 56.8 °F 74% 30.00 in 10.0 mi North 10.4 mph - N/A   Partly Cloudy
9:58 AM 68.0 °F 56.5 °F 67% 30.02 in 10.0 mi North 12.7 mph 18.4 mph N/A   Partly Cloudy
10:58 AM 70.0 °F 54.9 °F 59% 30.04 in 10.0 mi North 10.4 mph - N/A   Clear
11:58 AM 72.1 °F 55.2 °F 55% 30.04 in 10.0 mi North 9.2 mph - N/A   Clear
12:58 PM 73.2 °F 54.1 °F 51% 30.05 in 10.0 mi North 10.4 mph - N/A   Partly Cloudy
1:52 PM 73.4 °F 51.8 °F 47% 30.04 in 10.0 mi NE 5.8 mph - N/A Rain Light Rain
1:55 PM 73.4 °F 51.8 °F 47% 30.04 in 10.0 mi ENE 4.6 mph - N/A   Partly Cloudy
1:58 PM 74.3 °F 52.2 °F 46% 30.05 in 10.0 mi NNE 8.1 mph - 0.00 in   Partly Cloudy
2:58 PM 75.7 °F 50.4 °F 41% 30.05 in 10.0 mi Variable 5.8 mph - N/A   Partly Cloudy
3:58 PM 77.2 °F 49.8 °F 38% 30.06 in 10.0 mi NNW 8.1 mph - N/A   Scattered Clouds
4:58 PM 75.9 °F 48.9 °F 38% 30.05 in 10.0 mi NW 3.5 mph - N/A   Scattered Clouds
5:58 PM 73.4 °F 49.5 °F 43% 30.06 in 10.0 mi NNW 4.6 mph - N/A   Clear
6:58 PM 74.7 °F 49.1 °F 40% 30.07 in 10.0 mi North 3.5 mph - N/A   Clear
7:58 PM 69.6 °F 54.1 °F 58% 30.09 in 10.0 mi SSE 9.2 mph - N/A   Partly Cloudy
8:58 PM 64.4 °F 53.8 °F 68% 30.11 in 10.0 mi SE 6.9 mph - N/A   Clear
9:58 PM 61.3 °F 53.1 °F 74% 30.14 in 10.0 mi SSE 5.8 mph - N/A   Clear
10:58 PM 59.9 °F 53.1 °F 78% 30.15 in 10.0 mi South 6.9 mph - N/A   Clear
11:58 PM 58.3 °F 53.1 °F 83% 30.17 in 10.0 mi SSW 3.5 mph - N/A   Clear